This demonstration page uses our WeatherBlox Daily Observations layout. Learn more.

Left ArrowRight Arrow

38.88101, -77.10428

Hourly Observations for May 19, 2021

Temp ( °F °C ) Dew Point ( °F °C ) Humidity (%) Winds ( mph kmh ) Pressure ( in mb ) Visibility ( mi km ) Precip ( " mm )
12:52 am 00:52 Clear 63 17.2 49 9.4 60 60 S 8 13 30.33 1027 10 16 N/A
1:52 am 01:52 Hazy 62 16.7 49 9.4 62 62 SSW 6 9 30.33 1027 5 8 N/A
2:52 am 02:52 Clear 61 16.1 49 9.4 65 65 SW 6 9 30.33 1027 10 16 N/A
3:52 am 03:52 Clear 61 16.1 50 10 67 67 SSW 6 9 30.32 1027 10 16 N/A
4:52 am 04:52 Clear 60 15.6 50 10 70 70 SSW 6 9 30.33 1027 10 16 N/A
5:52 am 05:52 Sunny 59 15 50 10 72 72 SSW 3 6 30.33 1027 10 16 N/A
6:52 am 06:52 Sunny 61 16.1 47 8.3 60 60 SSW 3 6 30.35 1028 10 16 N/A
7:52 am 07:52 Sunny 66 18.9 49 9.4 54 54 W 3 6 30.37 1029 10 16 N/A
8:52 am 08:52 Sunny 67 19.4 51 10.6 57 57 SSE 5 7 30.37 1029 10 16 N/A
9:52 am 09:52 Sunny 71 21.7 56 13.3 59 59 S 9 15 30.38 1029 10 16 N/A
10:52 am 10:52 Sunny 76 24.4 58 14.4 54 54 S 7 11 30.38 1029 10 16 N/A
11:52 am 11:52 Sunny 80 26.7 56 13.3 44 44 S 7 11 30.37 1029 10 16 N/A
12:52 pm 12:52 Mostly Sunny 81 27.2 54 12.2 39 39 S 9 15 30.37 1028 10 16 N/A
1:52 pm 13:52 Mostly Sunny 82 27.8 52 11.1 35 35 S 13 20 30.35 1028 10 16 N/A
2:52 pm 14:52 Mostly Sunny 83 28.3 53 11.7 36 36 S 10 17 30.34 1027 10 16 N/A
3:52 pm 15:52 Sunny 84 28.9 48 8.9 29 29 S 9 15 30.33 1027 10 16 N/A
4:52 pm 16:52 Partly Cloudy 84 28.9 49 9.4 30 30 SSE 7 11 30.32 1027 10 16 N/A
5:52 pm 17:52 Partly Cloudy 82 27.8 52 11.1 35 35 S 12 19 30.32 1027 10 16 N/A
6:52 pm 18:52 Mostly Cloudy 78 25.6 55 12.8 45 45 S 9 15 30.32 1027 10 16 N/A
7:52 pm 19:52 Mostly Cloudy 79 26.1 51 10.6 38 38 SSW 9 15 30.32 1027 10 16 N/A
8:52 pm 20:52 Mostly Cloudy 74 23.3 56 13.3 54 54 S 8 13 30.32 1027 10 16 N/A
9:52 pm 21:52 Mostly Cloudy 73 22.8 54 12.2 51 51 S 5 7 30.32 1027 10 16 N/A
10:52 pm 22:52 Mostly Cloudy 70 21.1 60 15.6 71 71 S 6 9 30.34 1027 10 16 N/A
11:52 pm 23:52 Mostly Clear 68 20 58 14.4 70 70 S 7 11 30.34 1027 10 16 N/A

Powered by AerisWeather